Tracking 32523 objects as of 12-Dec-2025
HD Live streaming from Space Station
objects crossing your sky now

STARLINK-32776

Track STARLINK-32776 now!
10-day predictions
STARLINK-32776 is classified as:


NORAD ID: 63032
Int'l Code: 2025-034D
Perigee: 481.7 km
Apogee: 483.5 km
Inclination: 53.2 °
Period: 94.1 minutes
Semi major axis: 6853 km
RCS: Unknown
Launch date: February 18, 2025
Source: United States (US)
Launch site: AIR FORCE EASTERN TEST RANGE (AFETR)
Your satellite tracking list
Your tracking list is empty




NASA's NSSDC Master Catalog

Two Line Element Set (TLE):
1 63032U 25034D   25346.17851273  .00043658  00000-0  14811-2 0  9995
2 63032  53.1587 304.9493 0001306 108.3190 251.7953 15.30122560 45689
Source of the keplerian elements: AFSPC